Zurück zum Katalog

GORIZONT 26

AktivKommunikationGEO
NORAD 22041·PAYLOAD·🇷🇺 Russia

Gestartet Jul 14, 1992 von Baikonur Cosmodrome

Loading…

TLE

AktuellSource: Space-Track

Epoche: Sep 13, 2026, 12:53 UTC

1 22041U 92043A   26256.53702028 -.00000298  00000-0  00000+0 0  9994
2 22041  13.7794 344.1658 0035699 274.3859  83.9683  0.99247598124347

Verfolge GORIZONT 26 in Echtzeit mit AllMySat

Download on the App Store